Location: Campestrin
(46.4667°N, 11.7167°E)
Time: 17:18:56
(UTC+00:00)

Cosmos 405 Rocket - Pass Details

Date: 18 April 2021
Orbit: 489 x 553 km, 81.3° (Epoch: 06 May)

Event Time Altitude Azimuth Distance (km) Brightness Sun altitude
Rises 19:28:53 0° 352° (N) 2,733 7.0 -13.9°
Reaches altitude 10° 19:31:06 10° 356° (N) 1,828 6.0 -14.2°
Maximum altitude 19:35:06 61° 77° (ENE) 617 2.8 -14.7°
Enters shadow 19:37:15 25° 151° (SSE) 1,111 3.8 -15.0°
